CZ-6A DEB, 61123

Orbit data source: Space-Track

CZ-6A DEB, 61123 is space debris in LEO originally from a launch on Tue, 06 Aug 2024 UTC launched from the Taiyaun Space Center, China (TSC). Debris objects in space refer to the collection of defunct objects orbiting the Earth. Examples of debris include non-operational satellites, rocket bodies, and fragments generated from explosions, collisions, or faulty payload assembly.

Loading next visibility...
Identifier
61123, 2024-140PR
Orbit
LEO
Country
Flag of CNCN / PRC
Related business
Manufacturer
SAST
Mission
Spacecraft
Bus & Motor
Unknown
Mass
Unknown
Launch date (UTC)
2024-08-06 (2 years ago)
Launch vehicle
Unknown
Launch site
Taiyaun Space Center, China (TSC)
Object type
Payload
Rocket body
Debris
Shape & HBR
Unknown shape, 0.1 m
Radar Cross Section
Medium (>0.1 m² and <1 m²)

Expand to show TLE details & history
Last TLE update: 14 hours ago

TLE from 14 hours ago
0 CZ-6A DEB
1 61123U 24140PR  26171.25615803  .00000605  00000-0  28018-3 0  9994
2 61123  88.9992 274.3802 0051725 175.2037 184.9660 14.18837539 94614
Epoch: 2026-06-20T06:08Z
TLE epoch observation values (Epoch: 2026-06-20T06:08:52.053Z)
Latitude
0.00004°
Longitude
-86.31008°
Altitude
869.488 km
Speed
7.398 km/s
True Right ascension
18h 17m 31s
True Declination
0° 00' 00"
Sunlit
Object was in full shadow at epoch
Visualization orbit readout
Latitude
Unknown
Longitude
Unknown
Altitude
Unknown
Speed
Unknown
Apparent Right ascension
Unknown
Apparent Declination
Unknown
Sunlit
N/A
Visualization observer readout
Local Sidereal Time
07:24:25
Azimuth
Unknown
Elevation
Unknown
Doppler factor
Unknown
Orbital elements
Apogee altitude
863.504 km
Perigee altitude
788.975 km
Semi-major axis
7,204.377 km
Eccentricity
0.00517
Inclination
88.9992°
RAAN
274.3802°
Arg. of periapsis
175.2037°
True anomaly
184.91502°
Mean anomaly
184.966°
Eccentric anomaly
184.94048°
Mean motion
3.54935 °/min
Orbital period
101.43 mins
BSTAR
0.00028018
Loading maneuver chart data...
Computing Atmospheric mass density...
Loading historical data...
Loading historical data...
Loading historical data...
Loading historical data...
Loading historical data...
Loading historical data...
Loading historical data...

Documentation

Showing up to 5 results
|